Regional Weather Roundup
Issued by NWS

Home | Current Version | Previous Version | Graphics & Text | Print | Product List | Glossary On
Versions: 1 2 3 4 5 6 7 8 9 10 11 12 13 14 15 16 17 18 19 20 21 22 23 24 25 26 27 28 29 30 31 32 33 34 35 36 37 38 39 40 41 42 43 44 45 46 47 48 49 50
000
ASUS45 KTFX 191619
RWRMT
MONTANA HOURLY WEATHER ROUNDUP
NATIONAL WEATHER SERVICE GREAT FALLS MT
919 AM MST FRI DEC 19 2014

NOTE: "FAIR" INDICATES FEW OR NO CLOUDS BELOW 12000 FEET WITH NO
SIGNIFICANT WEATHER AND/OR OBSTRUCTIONS TO VISIBILITY.

* THESE STATIONS ARE NOT UNDER NWS QUALITY CONTROL. THEY DO NOT
   REPORT WEATHER SUCH AS PRECIPITATION OR FOG.

MTZ001>007-043-191700-
WEST OF THE DIVIDE
CITY           SKY/WX    TMP DP  RH WIND       PRES   REMARKS
KALISPELL      LGT SNOW  30  30 100 CALM      29.90R VSB 1 1/4
MISSOULA       FOG       28  28 100 CALM      29.96S
BUTTE          CLOUDY    21  18  88 CALM      29.96S
MULLAN PASS    SNOW      32  28  85 VRB7      29.84S VSB M1/4 WCI  25
* ANACONDA     PTCLDY    36  25  64 S13        N/A   WCI  27
* ESSEX        N/A       28  27  96 N/A        N/A
* EUREKA APT   PTCLDY    39  34  82 S8        29.88S WCI  33
* HAMILTON APT PTCLDY    41  28  60 S13       29.93S
* LIBBY APT    PTSUNNY   32  32 100 CALM      29.91S VSB 1 1/4
* LINCOLN      N/A       24  22  92 SE1        N/A
* LOOKOUT PASS N/A       32  32 100 S1         N/A
* POLSON       N/A       34  32  92 SE2        N/A
* RONAN APT    PTCLDY    32  30  92 N5         N/A   WCI  27
* SEELEY LAKE  N/A       25  24  96 N/A        N/A
* THOMP F APT  PTSUNNY   25  23  92 E2G7       N/A
$$

MTZ008-052>055-191700-
SOUTHWEST MONTANA
CITY           SKY/WX    TMP DP  RH WIND       PRES   REMARKS
BOZEMAN        PTSUNNY   23  19  85 S7        29.97F WCI  15
DILLON         CLOUDY    30  25  82 S6        29.99S WCI  24
* W YELLOWSTON PTCLDY    26  23  88 SW5G12     N/A   WCI  20
* THREE FORKS  PTSUNNY   34 -20   8 N/A        N/A
* TWIN BRIDGES CLOUDY    32  21  64 S6         N/A   WCI  26
* BOULDER HILL N/A       30  17  58 SW12       N/A   WCI  20
* MONIDA PASS  N/A       24  24 100 SE14G19    N/A   WCI  12
* RAYNOLDS PAS N/A       26  11  53 S13        N/A   WCI  15
* WHITEHALL    N/A       31  22  69 N4G9       N/A
* WISE RIVER   N/A       26  22  85 W9         N/A   WCI  17
$$

MTZ009>010-012-014-046-048-049-054-191700-
EAST SLOPES AND CENTRAL MONTANA
CITY           SKY/WX    TMP DP  RH WIND       PRES   REMARKS
CUT BANK       CLOUDY    30  21  69 S3        29.80F
GREAT FALLS    PTSUNNY   36  27  70 S13       29.85F WCI  27
HELENA         PTSUNNY   25  21  85 CALM      29.95S
MALMSTROM AFB  CLOUDY    36  27  70 SW16      29.87F WCI  26
* CONRAD       CLOUDY    21  18  88 CALM       N/A
* DEARBORN     N/A       39  25  57 S10        N/A   WCI  32
* EAST GLACIER N/A       36  27  70 W20G30     N/A   WCI  25
* MONARCH      N/A       31  17  56 S9         N/A   WCI  23
* PENDROY      N/A       29  22  75 N/A        N/A
* ROGERS PASS  N/A       31  23  72 SE9G17     N/A   WCI  23
* SWEET GRASS  N/A       26  21  81 S17        N/A   WCI  13
* WHITE SULPH  N/A       34  22  61 S14G22     N/A   WCI  24
$$

MTZ011-013-016-021-035-040-045-047-050-051-191700-
NORTH CENTRAL MONTANA
CITY           SKY/WX    TMP DP  RH WIND       PRES   REMARKS
HAVRE          PTCLDY    16  10  77 E3        29.88S
LEWISTOWN      PTCLDY    30  19  64 E7        29.89S WCI  23
* N BAR RANCH  SUNNY     28  21  75 CALM      29.91R
* CHINOOK      SUNNY     14  12  92 CALM      29.91R
* CHESTER      N/A       16  13  88 N/A        N/A
* DENTON       N/A       29  22  75 S9         N/A   WCI  21
* GEYSER       N/A       36  22  57 SW12       N/A   WCI  28
* JUDITH GAP   N/A       31  21  66 E6         N/A   WCI  25
* LOMA         N/A       25  22  88 NE8        N/A   WCI  16
$$

MTZ017>020-022>027-061-062-191700-
NORTHEAST MONTANA
CITY           SKY/WX    TMP DP  RH WIND       PRES   REMARKS
GLASGOW        FOG       21  18  88 N5        29.91S WCI  14
GLENDIVE       PTCLDY    28  25  89 S7        29.93S WCI  21
JORDAN         SUNNY     25  21  85 CALM      29.91S
SIDNEY         SUNNY     27  23  85 CALM      29.96R
WOLF POINT     SUNNY     19  16  88 CALM      29.94R
* BEAVER HILL  N/A       29  22  75 S8         N/A   WCI  21
* CIRCLE       N/A       28  25  89 SW3        N/A
* LINDSAY DVD  N/A       33  26  75 W4         N/A
* NAVAJO       N/A       22  21  96 W3         N/A
* PLENTYWOOD A SUNNY     12  10  92 CALM      29.91S
* POPLAR APT   SUNNY     18  16  92 CALM      29.94R VSB 2 1/2
* SACO         N/A       15  12  88 NE2        N/A
$$

MTZ028>042-056>058-191700-
SOUTHCENTRAL AND SOUTHEAST MONTANA
CITY           SKY/WX    TMP DP  RH WIND       PRES   REMARKS
BAKER          PTCLDY    28  23  81 CALM      29.94S
BILLINGS       PTSUNNY   28  18  66 SW16      29.94R WCI  16
LIVINGSTON     CLOUDY    39  21  48 W28G38    29.92F WCI  27
MILES CITY     PTCLDY    27  21  78 SE6       29.95S WCI  20
* FORSYTH APT  PTCLDY    28  21  75 CALM      29.95S
* LAUREL APT   PTSUNNY   28  10  47 SW9        N/A   WCI  19
* ROUNDUP APT  PTCLDY    30  19  64 S7         N/A   WCI  23
* ALZADA       N/A       27  18  69 W1         N/A
* HYSHAM       N/A       32  17  54 W5         N/A   WCI  27
* LAME DEER    N/A       34  15  46 W4         N/A
* REED POINT   N/A       19  18  96 E4         N/A
* ROSCOE HILL  N/A       38  11  33 SW4G11     N/A
$$

REGIONAL REPORTS...DAKOTAS
CITY           SKY/WX    TMP DP  RH WIND       PRES   REMARKS
WILLISTON      FOG       21  19  92 CALM      29.94S
DICKINSON      PTCLDY    30  25  82 W8        29.90S WCI  22
BEACH          SUNNY     30  25  82 SW6       29.93S WCI  24
CROSBY         FOG       21  21 100 SW6       29.94S VSB 1/2  WCI  13
TIOGA          FOG       21  21 100 SW3       29.94S VSB M1/4
WATFORD CITY   SUNNY     21  19  92 CALM      29.91S
BISMARCK       PTSUNNY   23  21  92 SE3       29.96S
GRAND FORKS    FOG       25  25 100 S12       30.07S VSB 3/4  WCI  14
FARGO          FOG       27  25  92 S13       30.08S VSB 3    WCI  16
BUFFALO SD     PTSUNNY   30  21  69 W8        29.88S WCI  22
RAPID CITY     SUNNY     34  23  64 CALM      29.98R
$$

REGIONAL REPORTS...WYOMING/IDAHO/WASHINGTON
CITY           SKY/WX    TMP DP  RH WIND       PRES   REMARKS
GILLETTE       SUNNY     30  16  56 SW12      29.96S WCI  20
SHERIDAN       PTCLDY    27  14  58 CALM      29.95S
CODY           PTCLDY    37  23  57 S13       29.96R WCI  29
YELLOWSTONE LA PTCLDY    25  21  85 CALM      30.07S
SALMON         CLOUDY    28  25  89 N5        30.04F WCI  22
MULLAN PASS    SNOW      32  28  85 VRB7      29.84S VSB M1/4 WCI  25
SAND POINT     LGT RAIN  34  34 100 CALM      29.90S VSB 2
SPOKANE        CLOUDY    39  39 100 S9        29.85S WCI  33
$$

REGIONAL REPORTS...ALBERTA
CITY           SKY/WX    TMP DP  RH WIND       PRES   REMARKS
CALGARY        PTSUNNY   27  19  72 S5        29.66F WCI  21
LETHBRIDGE     PTSUNNY   32  27  82 S20       29.74F WCI  20
MEDICINE HAT   PTSUNNY   16  16 100 SE5       29.80F WCI   8
EDMONTON       PTSUNNY   16  12  84 SE12      29.68F WCI   3
WATERTON GATE  N/A       37  30  76 SW15G21    N/A   WCI  28
CARDSTON       N/A       39  30  70 SW15G21    N/A   WCI  31
MILK RIVER     N/A       25  21  85 S7         N/A   WCI  17
$$

REGIONAL REPORTS...SASKATCHEWAN
CITY           SKY/WX    TMP DP  RH WIND       PRES   REMARKS
SWIFT CURRENT  N/A       19  18  96 S6        29.85S WCI  11
MOOSE JAW      FOG       18  16  92 CALM      29.94S VSB 3/4
REGINA         FOG       18  16  92 NW8       29.94R VSB 1    WCI   8
VAL MARIE      N/A       10   9  96 CALM       N/A
ASSINIBOIA     N/A       12  10  92 N2         N/A
CORONACH       N/A       14  12  92 CALM       N/A

$$




USA.gov is the U.S. government's official web portal to all federal, state and local government web resources and services.